Regional Weather Roundup
Issued by NWS

Home | Current Version | Previous Version | Text Only | Print | Product List | Glossary Off
Versions: 1 2 3 4 5 6 7 8 9 10 11 12 13 14 15 16 17 18 19 20 21 22 23 24

000
ASUS45 KCYS 231710
RWRWY

WYOMING REGIONAL WEATHER ROUNDUP
NATIONAL WEATHER SERVICE CHEYENNE WY
1100 AM MDT THU OCT 23 2014

NOTE:  "FAIR" INDICATES FEW OR NO CLOUDS BELOW 12,000 FEET
WITH NO SIGNIFICANT WEATHER AND/OR OBSTRUCTIONS TO VISIBILITY.

WYZ001-231800-
YELLOWSTONE NATIONAL PARK

CITY           SKY/WX    TMP DP  RH WIND       PRES   REMARKS
LK YELLOWSTONE   N/A     45  22  40 VRB6      30.19
W YELLOWSTONE  NOT AVBL

$$
WYZ002>013-054>058-071-098>099-231800-
NORTHERN WYOMING

CITY           SKY/WX    TMP DP  RH WIND       PRES   REMARKS
JACKSON        SUNNY     45  28  53 SW5       30.17
CODY             N/A    N/A N/A N/A MISG        N/A
GREYBULL       CLOUDY    46  22  38 VRB3      30.02
WORLAND        CLOUDY    50  26  39 SW6       30.02
SHERIDAN       CLOUDY    57  31  37 CALM      29.93
BUFFALO        CLOUDY    59  23  25 VRB3      29.98
GILLETTE       CLOUDY    60  23  24 SW15      29.95
HULETT         FAIR      59  23  25 SW13      29.98S
NEWCASTLE      FAIR      52  23  32 SE9       30.03F

$$
WYZ014>020-022>026-101>103-231800-
CENTRAL WYOMING

CITY           SKY/WX    TMP DP  RH WIND       PRES   REMARKS
BIG PINEY      PTSUNNY   40  23  50 VRB3      30.24
PINEDALE       SUNNY     43  27  52 CALM      30.24S
DUBOIS         FAIR      52  21  30 MISG      30.12
LANDER         PTSUNNY   52  24  33 VRB5      30.07
RIVERTON       PTSUNNY   52  22  30 E8        30.10
CASPER         CLOUDY    58  22  24 SW18G25   30.10
DOUGLAS        CLOUDY    51  26  37 SE3       30.08

$$
WYZ021-027>030-104>119-231800-
SOUTHERN WYOMING

CITY           SKY/WX    TMP DP  RH WIND       PRES   REMARKS
EVANSTON       MOSUNNY   54  26  34 SW14      30.23
KEMMERER       MOSUNNY   48  25  40 SW3       30.24
FORT BRIDGER   FAIR      56  27  32 CALM      30.25
ROCK SPRINGS   SUNNY     46  28  49 N3        30.23
DIXON          FAIR      51  35  53 CALM      30.30
RAWLINS        CLOUDY    55  29  36 SW23      30.23
LARAMIE        MOSUNNY   56  28  34 W25G31    30.20
CHEYENNE       CLOUDY    60  32  34 SW12G21   30.18
TORRINGTON     CLOUDY    53  35  50 E3        30.07
PINE BLUFFS    FAIR      55  43  62 S9        30.15

$$



USA.gov is the U.S. government's official web portal to all federal, state and local government web resources and services.